Helicity
140 132 100 87 91 146 123 95 67 10 -1 -10 17 52 46 54 55 39 44 50 49 47 70 46 0 2 1 2 -9 -21 -21 -23 -12
151 179 202 152 82 108 137 151 157 120 49 22 13 33 100 62 50 55 32 40 28 22 31 9 -27 -16 3 3 -2 -5 -15 -22 -15
131 185 173 235 233 158 158 194 204 193 134 87 74 125 181 168 82 74 62 42 30 9 6 -6 -29 -32 -17 -11 -1 -3 -5 -25 -41
120 200 227 268 328 174 203 149 201 219 210 164 94 139 191 184 174 164 63 63 44 26 -2 9 -3 -14 -7 -6 -1 6 4 -20 -33
40 138 286 344 289 271 184 210 223 216 195 188 174 175 199 204 214 209 104 122 62 24 11 9 33 21 -3 -20 -17 -2 21 9 -16
62 50 124 150 208 192 237 223 247 246 207 180 181 207 192 182 194 213 140 112 85 47 13 5 43 33 19 -5 -24 -20 -2 14 27
84 65 64 113 232 237 132 230 245 254 254 217 214 216 215 209 192 192 122 216 89 49 51 36 29 43 32 12 -9 -24 -22 -13 3
33 48 66 121 211 228 197 184 273 244 260 264 276 258 228 206 241 248 230 152 98 76 70 60 42 44 28 20 -1 -30 -25 -21 -11
16 -6 33 59 170 192 243 220 274 293 293 303 293 277 246 244 246 257 222 183 139 114 88 62 42 35 44 49 35 12 26 17 -3
-29 10 -45 12 174 164 217 272 279 275 334 351 291 250 214 229 208 191 174 161 153 91 77 91 58 56 58 58 72 77 82 88 37
69 95 111 123 135 119 183 263 234 238 308 328 277 201 158 166 182 155 141 137 126 78 71 65 62 62 75 69 59 89 117 132 89
91 78 91 112 127 90 228 207 213 239 217 248 223 173 180 171 173 149 145 129 113 109 91 51 73 74 72 85 63 80 106 115 101
162 184 174 130 57 108 175 223 225 217 172 126 133 133 156 165 176 180 186 177 157 147 129 82 81 55 77 99 82 95 126 135 77
243 233 227 210 219 196 112 144 208 182 147 61 118 167 150 151 152 146 126 111 111 123 119 115 109 117 121 66 91 81 102 139 128
493 495 458 460 258 234 228 206 187 224 120 132 141 162 124 118 146 152 137 137 144 147 155 139 135 132 127 125 127 106 108 126 154
571 563 608 601 520 373 316 292 247 243 157 80 104 110 84 93 141 153 161 169 174 184 179 166 150 147 126 118 142 149 154 171 181
531 551 596 614 562 551 514 408 315 226 199 177 158 163 138 135 165 170 171 185 188 162 156 165 175 162 145 130 139 154 148 136 147
481 436 446 456 491 483 475 404 331 304 242 213 220 210 186 133 123 136 157 224 218 190 149 147 145 147 149 145 134 133 139 157 153
471 442 368 351 356 359 386 332 298 270 243 176 139 130 134 134 118 98 97 160 195 245 228 212 161 128 142 170 145 111 72 82 106
468 447 426 348 283 270 275 252 218 261 249 204 170 151 151 139 127 109 128 132 135 171 233 240 262 217 173 163 135 158 151 165 199
Wind_Speed
56 50 36 49 74 71 71 73 81 88 86 92 81 67 67 65 67 60 68 69 67 67 63 58 51 50 48 44 38 38 36 38 41
36 38 36 53 80 79 79 69 74 79 80 90 88 85 45 50 65 64 63 72 70 67 64 59 54 48 47 43 39 36 35 35 38
55 29 35 39 45 77 76 79 61 56 82 87 87 55 68 76 60 77 72 75 69 67 64 56 50 47 45 44 38 37 35 35 35
50 26 27 33 41 81 75 76 61 46 56 74 76 42 46 58 60 62 62 83 75 68 63 53 47 41 34 33 34 32 34 34 33
87 31 29 29 61 46 55 62 64 53 41 53 72 59 41 40 57 52 47 91 82 73 68 51 40 28 29 26 25 25 29 33 30
86 88 74 81 68 37 47 49 46 47 37 43 41 50 39 39 45 44 41 92 89 77 68 58 36 35 33 32 27 25 27 32 27
76 78 81 83 68 50 48 45 50 41 35 36 36 38 40 39 38 36 57 58 69 72 61 53 44 42 42 41 41 34 35 33 32
83 90 91 89 79 55 45 46 46 42 43 36 35 36 36 38 49 49 51 39 56 56 56 55 53 52 53 52 51 50 43 40 42
82 89 92 94 80 67 46 47 46 41 40 36 34 34 35 46 55 45 34 33 39 46 48 54 53 54 54 55 52 56 57 50 51
73 84 91 89 69 63 53 46 44 42 39 35 33 31 44 47 48 39 34 31 30 44 54 36 53 50 46 56 54 58 59 60 59
64 69 72 73 68 59 51 41 43 35 35 34 33 38 42 42 41 40 38 35 36 27 29 54 56 49 49 51 61 58 58 57 59
48 48 51 60 66 67 62 37 36 35 33 33 39 38 30 29 29 30 31 31 30 41 63 76 61 59 60 57 58 50 53 48 52
37 33 28 41 48 51 39 32 32 34 32 29 33 31 27 31 33 31 28 28 47 60 68 81 78 71 53 52 56 43 46 47 45
26 23 21 31 39 38 32 29 31 35 34 38 29 33 29 26 35 52 62 56 57 54 58 59 62 49 34 32 27 29 37 39 34
21 18 19 20 26 35 37 39 34 36 39 48 39 30 23 23 33 55 55 48 51 51 48 46 44 36 41 28 25 28 29 35 41
18 17 14 12 15 21 25 32 32 32 44 46 45 37 23 26 32 50 51 42 48 44 41 40 42 39 43 46 39 37 24 25 30
20 20 18 16 12 11 12 18 20 21 28 33 44 47 43 33 30 48 54 51 49 50 52 49 49 50 53 53 48 42 41 39 40
25 24 23 21 19 18 18 20 18 21 22 22 25 29 35 40 43 49 56 53 54 51 49 61 57 58 57 55 55 52 43 41 42
30 29 28 27 26 25 26 26 26 26 27 27 32 37 39 41 45 50 52 53 58 56 59 55 59 57 54 54 58 52 48 44 44
40 37 35 33 32 32 32 33 32 33 35 38 42 47 50 51 50 49 47 46 47 52 53 51 50 50 49 48 51 47 43 40 38
Wind_Direction
246 244 225 192 192 188 186 186 189 192 191 196 189 185 186 187 189 188 194 199 201 201 198 193 186 185 184 181 170 168 162 164 169
246 236 221 191 196 195 194 187 187 189 189 194 193 192 195 189 188 189 191 200 202 202 198 193 190 185 184 181 175 170 166 165 166
252 230 233 229 204 194 192 193 186 187 192 194 194 204 239 238 192 196 195 201 198 199 197 189 185 186 186 186 180 179 174 173 170
252 221 209 212 207 194 192 192 187 193 189 190 192 209 232 241 243 245 191 206 202 199 196 189 185 183 179 182 182 181 181 180 177
212 200 206 210 190 192 188 188 186 187 201 189 189 189 207 219 243 245 194 221 206 202 200 189 186 185 185 187 186 182 181 184 180
239 236 248 241 245 216 194 197 192 186 199 196 200 235 212 227 238 239 198 218 215 203 199 195 191 191 193 192 191 188 185 185 186
242 241 240 241 250 242 201 200 192 200 210 218 216 220 226 224 222 222 190 246 195 199 195 194 194 194 194 193 193 191 190 189 190
248 244 244 246 247 242 206 211 225 224 232 220 217 218 214 206 239 242 246 204 192 192 194 196 196 196 196 195 195 196 194 194 196
253 250 251 247 244 238 212 195 199 204 220 218 217 222 219 238 241 239 222 215 196 191 193 194 195 197 197 198 199 201 201 198 200
264 257 253 245 234 223 218 198 196 205 209 217 213 219 237 239 240 234 229 226 230 191 192 194 195 197 197 200 200 200 201 202 206
271 264 252 238 227 215 214 203 191 208 211 214 219 232 235 237 238 238 240 240 244 213 201 192 195 196 197 198 202 200 202 204 208
271 267 256 233 220 219 221 191 193 196 200 218 228 229 222 221 219 227 234 236 240 252 244 210 197 198 199 198 201 200 203 205 208
282 280 265 227 215 219 220 212 204 199 197 204 219 218 215 232 234 231 226 222 251 250 246 225 237 210 199 200 204 203 205 205 209
296 282 267 235 226 227 219 208 210 215 214 186 211 240 236 228 240 242 241 247 249 253 254 256 257 268 270 204 212 211 207 208 214
308 303 284 264 247 243 237 229 223 223 229 241 241 238 217 219 243 246 248 253 255 257 261 265 269 273 276 272 266 218 220 219 218
307 324 313 295 271 258 240 232 231 232 240 241 240 242 228 239 251 253 253 256 258 261 263 266 270 273 277 280 284 283 250 249 238
300 310 315 306 299 284 259 240 235 241 246 249 245 248 254 257 263 257 253 256 258 263 263 267 268 270 273 277 283 288 291 288 287
295 299 300 298 288 282 276 260 259 259 260 261 261 263 264 265 266 261 256 259 263 267 269 264 268 269 273 277 281 286 290 292 292
288 294 294 294 293 293 285 274 272 270 272 274 268 265 268 270 270 266 262 262 264 270 270 274 272 275 277 280 282 288 290 290 292
278 286 291 291 294 293 288 282 282 282 280 279 278 273 273 273 274 274 273 271 270 270 277 278 281 279 279 281 286 289 292 294 298